FW8253 Weather Reports


Display with metric or nautical units.
time (UTC)temp
F
wind
direction
speed
MPH
gust
MPH
rain 1hr
in
rain 24hr
in
rain mn
in
humidity
%
barometer
mb
20260504060120 48 207 0.0 0.0 0.00 0.00 0.00 99 1020.2
20260504050548 47 207 0.0 0.0 0.00 0.00 0.00 98 1020.1
20260504045542 47 207 0.0 0.0 0.00 0.00 0.00 98 1020.0
20260504045037 47 207 0.0 0.0 0.00 0.00 0.00 98 1019.9
20260504044535 47 207 0.0 0.0 0.00 0.00 0.00 98 1020.0
20260504044032 47 207 0.0 0.0 0.00 0.00 0.00 98 1019.9
20260504043529 47 207 0.0 0.0 0.00 0.00 0.00 98 1019.8
20260504043026 47 207 0.0 0.0 0.00 0.00 0.00 98 1019.7
20260504042523 47 207 0.0 0.0 0.00 0.00 0.00 98 1019.7
20260504042020 48 207 0.0 0.0 0.00 0.00 0.00 98 1019.6
20260504041516 48 207 0.0 0.0 0.00 0.00 0.00 97 1019.6
20260504041012 48 207 0.0 0.0 0.00 0.00 0.00 97 1019.6
20260504040510 48 207 0.0 0.0 0.00 0.00 0.00 97 1019.7
20260504040006 48 207 0.0 0.0 0.00 0.00 0.00 97 1019.7
20260504035503 48 207 0.0 0.0 0.00 0.00 0.00 97 1019.6
20260504034959 48 207 0.0 0.0 0.00 0.00 0.00 97 1019.7
20260504034457 48 207 0.0 0.0 0.00 0.00 0.00 96 1019.4
20260504033954 49 207 0.0 0.0 0.00 0.00 0.00 96 1019.5
20260504033452 49 207 0.0 0.0 0.00 0.00 0.00 96 1019.8
20260504032949 49 207 0.0 0.0 0.00 0.00 0.00 95 1019.5
20260504032446 49 207 0.0 0.0 0.00 0.00 0.00 96 1019.6
20260504031942 49 207 0.0 0.0 0.00 0.00 0.00 95 1019.7
20260504031439 49 207 0.0 0.0 0.00 0.00 0.00 95 1019.6
20260504030936 50 207 0.0 0.0 0.00 0.00 0.00 95 1019.5
20260504030433 50 207 0.0 0.0 0.00 0.00 0.00 94 1019.9
20260504025929 50 207 0.0 0.0 0.00 0.00 0.00 94 1019.7
20260504025426 50 207 0.0 0.0 0.00 0.00 0.00 94 1019.7
20260504024923 50 207 0.0 0.0 0.00 0.00 0.00 94 1019.6
20260504024420 50 207 0.0 0.0 0.00 0.00 0.00 94 1019.6
20260504023917 51 207 0.0 0.0 0.00 0.00 0.00 94 1019.6
20260504023413 51 207 0.0 0.0 0.00 0.00 0.00 94 1019.4
20260504022909 51 207 0.0 0.0 0.00 0.00 0.00 93 1019.6
20260504022406 51 207 0.0 0.0 0.00 0.00 0.00 93 1019.5
20260504021903 52 207 0.0 0.0 0.00 0.00 0.00 93 1019.2
20260504021400 52 207 0.0 0.0 0.00 0.00 0.00 93 1019.4
20260504020857 52 207 0.0 0.0 0.00 0.00 0.00 92 1019.3
20260504020353 53 207 0.0 0.0 0.00 0.00 0.00 93 1019.0
20260504015849 53 207 0.0 0.0 0.00 0.00 0.00 92 1019.3
20260504015346 53 207 0.0 0.0 0.00 0.00 0.00 92 1019.0
20260504014842 53 208 0.0 0.0 0.00 0.00 0.00 93 1018.9
20260504014338 53 208 0.0 0.0 0.00 0.00 0.00 93 1018.7
20260504013836 54 208 0.0 0.0 0.00 0.00 0.00 92 1018.9
20260504013333 54 208 0.0 0.0 0.00 0.00 0.00 92 1018.8
20260504012830 55 208 0.0 0.0 0.00 0.00 0.00 92 1018.8
20260504012328 55 208 0.0 0.0 0.00 0.00 0.00 92 1018.6
20260504011825 55 207 0.0 0.0 0.00 0.00 0.00 91 1018.8
20260504011321 56 207 0.0 0.0 0.00 0.00 0.00 90 1018.3
20260504010817 56 207 0.0 0.0 0.00 0.00 0.00 89 1018.5
20260504010313 56 208 0.0 0.0 0.00 0.00 0.00 88 1018.5
20260504005810 57 207 0.0 0.0 0.00 0.00 0.00 87 1018.4
20260504005307 57 207 0.0 0.0 0.00 0.00 0.00 86 1018.3
20260504004804 58 208 0.0 0.0 0.00 0.00 0.00 84 1018.3
20260504004302 58 207 0.0 0.0 0.00 0.00 0.00 83 1018.3
20260504003758 59 208 0.0 0.0 0.00 0.00 0.00 81 1018.2
20260504003255 59 208 0.0 0.0 0.00 0.00 0.00 79 1018.3
20260504002751 60 208 0.0 0.0 0.00 0.00 0.00 78 1018.0
20260504002249 60 208 0.0 0.0 0.00 0.00 0.00 76 1018.2
20260504001746 61 208 0.0 0.0 0.00 0.00 0.00 73 1017.9
20260504001243 61 208 0.0 0.0 0.00 0.00 0.00 72 1017.9
20260504000740 62 208 0.0 0.0 0.00 0.00 0.00 71 1017.8
20260504000237 63 208 0.0 0.0 0.00 0.00 0.00 72 1017.8
20260503235735 63 208 0.0 0.0 0.00 0.00 0.00 70 1017.8
20260503235232 64 208 0.0 0.0 0.00 0.00 0.00 67 1018.0
20260503234730 64 208 0.0 0.0 0.00 0.00 0.00 64 1017.8
20260503234227 65 208 0.0 0.0 0.00 0.00 0.00 61 1017.9
20260503233725 66 209 0.0 0.0 0.00 0.00 0.00 61 1017.8
20260503233220 66 195 0.0 0.0 0.00 0.00 0.00 59 1017.8
20260503232717 67 193 0.0 0.0 0.00 0.00 0.00 58 1017.8
20260503232214 67 251 0.0 0.0 0.00 0.00 0.00 55 1017.8
20260503231713 68 251 0.0 0.0 0.00 0.00 0.00 52 1017.7
20260503231209 68 251 0.0 0.0 0.00 0.00 0.00 48 1017.6
20260503230705 68 251 0.0 0.0 0.00 0.00 0.00 48 1017.7
20260503230202 69 251 0.0 0.0 0.00 0.00 0.00 47 1017.6
20260503225659 69 251 0.0 0.0 0.00 0.00 0.00 50 1017.8
20260503225154 69 251 0.0 0.0 0.00 0.00 0.00 49 1017.6
20260503224651 69 251 0.0 0.0 0.00 0.00 0.00 51 1017.7
20260503224149 70 252 0.0 0.0 0.00 0.00 0.00 49 1017.8
20260503223647 71 227 0.0 0.0 0.00 0.00 0.00 45 1018.2
20260503223143 71 226 0.0 0.0 0.00 0.00 0.00 42 1017.9
20260503222640 71 214 0.0 0.0 0.00 0.00 0.00 45 1017.9
20260503222138 71 210 0.0 0.0 0.00 0.00 0.00 40 1018.0
20260503221636 71 207 0.0 0.0 0.00 0.00 0.00 43 1017.8
20260503221133 72 207 0.0 0.0 0.00 0.00 0.00 44 1018.1
20260503220630 72 220 0.0 0.0 0.00 0.00 0.00 45 1018.1
20260503220127 73 238 0.0 0.0 0.00 0.00 0.00 41 1018.1
20260503215624 73 237 0.0 0.0 0.00 0.00 0.00 44 1018.0
20260503215120 73 162 0.0 0.0 0.00 0.00 0.00 41 1017.8
20260503214619 74 182 0.0 0.0 0.00 0.00 0.00 46 1018.1
20260503214115 75 238 0.0 0.0 0.00 0.00 0.00 40 1018.1
20260503213614 75 212 0.0 0.0 0.00 0.00 0.00 38 1018.0
20260503213110 75 246 0.0 0.0 0.00 0.00 0.00 42 1018.2
20260503212608 76 248 0.0 0.0 0.00 0.00 0.00 41 1018.1
20260503212105 74 244 0.0 0.0 0.00 0.00 0.00 42 1018.2
20260503211602 74 111 0.0 0.0 0.00 0.00 0.00 38 1018.2
20260503211057 74 230 0.0 0.0 0.00 0.00 0.00 40 1018.0
20260503210554 75 156 0.0 0.0 0.00 0.00 0.00 42 1018.2
20260503210050 75 282 0.0 0.0 0.00 0.00 0.00 40 1018.0
20260503205547 75 267 0.0 0.0 0.00 0.00 0.00 41 1018.1
20260503205044 75 141 0.0 0.0 0.00 0.00 0.00 38 1018.2
20260503204541 75 225 0.0 0.0 0.00 0.00 0.00 43 1018.1
20260503204038 75 209 0.0 0.0 0.00 0.00 0.00 38 1018.2
20260503203535 77 129 0.0 0.0 0.00 0.00 0.00 39 1018.2
20260503203032 76 250 0.0 0.0 0.00 0.00 0.00 41 1018.2
20260503202530 75 237 0.0 0.0 0.00 0.00 0.00 39 1018.5
20260503202027 75 248 0.0 0.0 0.00 0.00 0.00 43 1018.4
20260503201525 75 233 0.0 0.0 0.00 0.00 0.00 43 1018.8
20260503201022 75 209 0.0 0.0 0.00 0.00 0.00 41 1018.7
20260503200518 75 63 0.0 0.0 0.00 0.00 0.00 40 1018.9
20260503200015 74 246 0.0 0.0 0.00 0.00 0.00 43 1018.8
20260503195513 75 85 0.0 0.0 0.00 0.00 0.00 40 1018.8
20260503195009 73 100 0.0 0.0 0.00 0.00 0.00 42 1019.0
20260503194507 75 98 0.0 0.0 0.00 0.00 0.00 42 1019.0
20260503194006 75 253 0.0 0.0 0.00 0.00 0.00 45 1019.3
20260503193503 76 7 0.0 0.0 0.00 0.00 0.00 41 1019.4
20260503192958 75 179 0.0 0.0 0.00 0.00 0.00 44 1019.3
20260503192455 74 10 0.0 0.0 0.00 0.00 0.00 44 1019.6
20260503191950 74 230 0.0 0.0 0.00 0.00 0.00 44 1019.5
20260503191448 75 96 0.0 0.0 0.00 0.00 0.00 38 1019.6
20260503190944 75 242 0.0 0.0 0.00 0.00 0.00 48 1019.8
20260503190442 74 311 0.0 0.0 0.00 0.00 0.00 43 1019.8
20260503185938 74 219 0.0 0.0 0.00 0.00 0.00 41 1020.0
20260503185435 74 239 0.0 0.0 0.00 0.00 0.00 47 1020.0
20260503184934 73 233 0.0 0.0 0.00 0.00 0.00 44 1020.2
20260503184431 74 230 0.0 0.0 0.00 0.00 0.00 48 1020.4
20260503183927 74 230 0.0 0.0 0.00 0.00 0.00 44 1020.1
20260503183424 73 273 0.0 0.0 0.00 0.00 0.00 46 1020.4
20260503182921 72 218 0.0 0.0 0.00 0.00 0.00 44 1020.4
20260503182420 72 217 0.0 0.0 0.00 0.00 0.00 53 1020.8
20260503181917 73 238 0.0 0.0 0.00 0.00 0.00 42 1020.6
20260503181414 73 190 0.0 0.0 0.00 0.00 0.00 50 1020.9
20260503180910 72 194 0.0 0.0 0.00 0.00 0.00 46 1020.8
20260503180408 72 235 0.0 0.0 0.00 0.00 0.00 52 1020.8
20260503175904 71 140 0.0 0.0 0.00 0.00 0.00 43 1020.8
20260503175403 72 182 0.0 0.0 0.00 0.00 0.00 45 1021.0
20260503174858 72 217 0.0 0.0 0.00 0.00 0.00 55 1021.0
20260503174356 70 189 0.0 0.0 0.00 0.00 0.00 52 1021.1
20260503173851 69 146 0.0 0.0 0.00 0.00 0.00 52 1020.9
20260503173348 71 201 0.0 0.0 0.00 0.00 0.00 48 1021.2
20260503172844 73 248 0.0 0.0 0.00 0.00 0.00 48 1021.1
20260503172342 70 196 0.0 0.0 0.00 0.00 0.00 47 1021.2
20260503171838 70 244 0.0 0.0 0.00 0.00 0.00 44 1021.3
20260503171335 70 208 0.0 0.0 0.00 0.00 0.00 45 1021.3
20260503170832 71 205 0.0 0.0 0.00 0.00 0.00 42 1021.2
20260503170328 71 213 0.0 0.0 0.00 0.00 0.00 42 1021.2
20260503150721 66 237 0.0 0.0 0.00 0.00 0.00 64 1022.3
20260503150217 65 218 0.0 0.0 0.00 0.00 0.00 74 1022.3
20260503140141 59 221 0.0 0.0 0.00 0.00 0.00 91 1022.4
20260503131111 53 241 0.0 0.0 0.00 0.00 0.00 99 1022.1
20260503130609 53 180 0.0 0.0 0.00 0.00 0.00 99 1021.9
20260503130106 53 166 0.0 0.0 0.00 0.00 0.00 99 1022.0
20260503110458 48 227 0.0 0.0 0.00 0.00 0.00 99 1020.9
20260503090350 46 235 0.0 0.0 0.00 0.00 0.00 99 1019.7
20260503081312 47 235 0.0 0.0 0.00 0.00 0.00 99 1018.7
20260503080808 47 235 0.0 0.0 0.00 0.00 0.00 99 1019.0
20260503080305 47 235 0.0 0.0 0.00 0.00 0.00 99 1018.9
20260503072741 48 232 0.0 0.0 0.00 0.00 0.00 99 1018.7
20260503072238 48 232 0.0 0.0 0.00 0.00 0.00 99 1018.9
20260503071735 49 232 0.0 0.0 0.00 0.00 0.00 99 1018.7
20260503071231 49 232 0.0 0.0 0.00 0.00 0.00 99 1018.8
20260503070728 49 232 0.0 0.0 0.00 0.00 0.00 99 1018.6
20260503070226 49 232 0.0 0.0 0.00 0.00 0.00 99 1018.6